Aérodrome :
LOGIN :

S'inscrire | Disclaimer

   EN    FR    IT 

 










Légende :    VFR   VFR Marginal   IFR   IFR Intensif   IFR Très Intensif
Visi : 
Plafond : 
>= 8 km
>= 3000ft
5 à 8 km
1000 à 3000 ft
1500m à 5 km
500 à 1000 ft
800 à 1500m
200 à 500 ft
< 800m
< 200 ft
Symboles :   Orages  Brouillard  Fortes neiges  Fortes précipitations  Vent > 20 kt
SIGMETs :   Divers  Orages  Givrage  Turbulence  Onde Orograph.  Cendres Volcan.







- Altitude de l'aérodrome : 36 ft
- Code IATA : LTQ
- Voir les cartes d'approche


LFAT - Le Touquet

DERNIER METAR :
  • 261200Z AUTO 28008KT 240V310 9999 NCD 10/01 Q1034 NOSIG

METARs EXPIRÉS :
  • 261130Z AUTO 29007KT 250V330 9999 NCD 10/04 Q1034 NOSIG
  • 261100Z AUTO 30007KT 260V340 9999 NCD 10/04 Q1034 NOSIG
  • 261030Z AUTO 32008KT 280V340 9999 NCD 10/05 Q1034 NOSIG
  • 261000Z AUTO 32007KT 270V340 9999 NCD 10/05 Q1035 NOSIG
  • 260930Z AUTO 32006KT 290V350 9999 NCD 09/05 Q1035 NOSIG

TAF TAF LFAT
Valide du 26 à 12h jusqu'au 26 à 21h UTC


261100Z 2612/2621 32007KT CAVOK
ATIS : +33 3 21 06 62 84
Pas de NOTAMs connus pour ce terrain.



MET'MAP, la Météo Aéronautique d'un coup d'oeil ! - Copyright ORBIFLY Décembre 2007 - Disclaimer

ORBIFLY MET'MAP TEAM :

Programmation & Développement : Alexandra Zaïnal
Conception & Développement : Baudouin d'Aumeries
Co-Programmation & Développement : Marc-Olivier Méhu
Soutien technique & logistique : Manuel Goepfert

Contact : metmap@orbifly.com




SOURCES & CREDITS :

   NOAA